When you browse on this site, cookies collect data to enhance your experience and personalize the content and advertising you see.
Visit our Privacy Policy to learn more. By continuing to use the site, you agree to this use of cookies and data.
  • In Switzerland
  • List of Countries
  • For 7 days
  • Water Temperature
  • Satellite Maps
  • Weather Map
  • Weather Widgets
  • user-avatar
    Login

    Hourly Weather Plebanivka

    Today, 23 July, Tuesday

    Time Temperature Precipitation Wind Pressure Humidity
    00:00 +16°C° 0 mm 2 mps 735 mmHg 85%
    01:00 +16°C° 0 mm 3 mps 735 mmHg 86%
    02:00 +16°C° 0 mm 2 mps 735 mmHg 91%
    03:00 +16°C° 0.9 mm 2 mps 734 mmHg 92%
    04:00 +16°C° 0.9 mm 2 mps 734 mmHg 92%
    05:00 +16°C° 0.9 mm 1 mps 734 mmHg 93%
    06:00 +17°C° 1 mm 2 mps 734 mmHg 92%
    07:00 +17°C° 1 mm 3 mps 734 mmHg 92%
    08:00 +17°C° 1 mm 3 mps 734 mmHg 91%
    09:00 +18°C° 0.4 mm 4 mps 734 mmHg 86%
    10:00 +19°C° 0.4 mm 4 mps 734 mmHg 81%
    11:00 +20°C° 0.4 mm 4 mps 734 mmHg 76%
    12:00 +21°C° 0.3 mm 4 mps 734 mmHg 73%
    13:00 +21°C° 0.3 mm 4 mps 734 mmHg 69%
    14:00 +22°C° 0.3 mm 4 mps 733 mmHg 66%
    15:00 +22°C° 0.2 mm 4 mps 733 mmHg 67%
    16:00 +22°C° 0.2 mm 4 mps 733 mmHg 69%
    17:00 +21°C° 0.2 mm 4 mps 733 mmHg 71%
    18:00 +20°C° 0.2 mm 4 mps 733 mmHg 76%
    19:00 +19°C° 0.2 mm 3 mps 733 mmHg 82%
    20:00 +17°C° 0.2 mm 3 mps 733 mmHg 88%
    21:00 +16°C° 0 mm 3 mps 733 mmHg 90%
    22:00 +16°C° 0 mm 3 mps 733 mmHg 92%
    23:00 +14°C° 0 mm 3 mps 733 mmHg 93%

    Tomorrow, 24 July, Wednesday

    Time Temperature Precipitation Wind Pressure Humidity
    00:00 +14°C° 0 mm 3 mps 733 mmHg 94%
    01:00 +13°C° 0 mm 3 mps 733 mmHg 95%
    02:00 +13°C° 0 mm 3 mps 733 mmHg 95%
    03:00 +13°C° 0 mm 4 mps 733 mmHg 96%
    04:00 +13°C° 0 mm 4 mps 733 mmHg 96%
    05:00 +13°C° 0 mm 4 mps 733 mmHg 97%
    06:00 +14°C° 0 mm 4 mps 733 mmHg 94%
    07:00 +15°C° 0 mm 4 mps 733 mmHg 90%
    08:00 +18°C° 0 mm 4 mps 733 mmHg 87%
    09:00 +19°C° 0.1 mm 5 mps 733 mmHg 82%
    10:00 +20°C° 0.1 mm 5 mps 733 mmHg 78%
    11:00 +21°C° 0.1 mm 5 mps 733 mmHg 73%
    12:00 +22°C° 0.2 mm 5 mps 733 mmHg 71%
    13:00 +23°C° 0.2 mm 5 mps 733 mmHg 69%
    14:00 +23°C° 0.2 mm 5 mps 733 mmHg 66%
    15:00 +23°C° 0.2 mm 5 mps 733 mmHg 68%
    16:00 +23°C° 0.2 mm 5 mps 733 mmHg 69%
    17:00 +23°C° 0.2 mm 5 mps 733 mmHg 70%
    18:00 +21°C° 0 mm 4 mps 733 mmHg 76%
    19:00 +20°C° 0 mm 3 mps 733 mmHg 82%
    20:00 +19°C° 0 mm 3 mps 733 mmHg 88%
    21:00 +18°C° 0 mm 3 mps 733 mmHg 89%
    22:00 +17°C° 0 mm 3 mps 733 mmHg 91%
    23:00 +17°C° 0 mm 3 mps 734 mmHg 93%

    Day after tomorrow, 25 July, Thursday

    Time Temperature Precipitation Wind Pressure Humidity
    00:00 +16°C° 0 mm 3 mps 733 mmHg 94%
    01:00 +16°C° 0 mm 3 mps 733 mmHg 94%
    02:00 +16°C° 0 mm 3 mps 733 mmHg 95%
    03:00 +14°C° 0 mm 3 mps 733 mmHg 95%
    04:00 +14°C° 0 mm 3 mps 734 mmHg 96%
    05:00 +14°C° 0 mm 3 mps 734 mmHg 96%
    06:00 +16°C° 0 mm 3 mps 734 mmHg 92%
    07:00 +18°C° 0 mm 3 mps 734 mmHg 87%
    08:00 +20°C° 0 mm 3 mps 734 mmHg 83%
    09:00 +21°C° 0 mm 3 mps 734 mmHg 77%
    10:00 +22°C° 0 mm 3 mps 734 mmHg 71%
    11:00 +24°C° 0 mm 3 mps 734 mmHg 64%
    12:00 +25°C° 0.2 mm 3 mps 734 mmHg 64%
    13:00 +25°C° 0.2 mm 3 mps 734 mmHg 64%
    14:00 +25°C° 0.2 mm 3 mps 733 mmHg 64%
    15:00 +25°C° 0.1 mm 3 mps 733 mmHg 66%
    16:00 +24°C° 0.1 mm 3 mps 733 mmHg 69%
    17:00 +24°C° 0.1 mm 3 mps 732 mmHg 71%
    18:00 +23°C° 0.1 mm 2 mps 732 mmHg 76%
    19:00 +20°C° 0.1 mm 2 mps 732 mmHg 81%
    20:00 +19°C° 0.1 mm 2 mps 732 mmHg 85%
    21:00 +18°C° 0 mm 2 mps 732 mmHg 87%
    22:00 +18°C° 0 mm 2 mps 732 mmHg 89%
    23:00 +17°C° 0 mm 2 mps 732 mmHg 91%

    26 July, Friday

    Time Temperature Precipitation Wind Pressure Humidity
    00:00 +17°C° 0 mm 2 mps 732 mmHg 92%
    01:00 +17°C° 0 mm 2 mps 731 mmHg 92%
    02:00 +16°C° 0 mm 3 mps 731 mmHg 93%
    03:00 +16°C° 0 mm 3 mps 731 mmHg 93%
    04:00 +16°C° 0 mm 3 mps 731 mmHg 94%
    05:00 +14°C° 0 mm 3 mps 731 mmHg 95%
    06:00 +17°C° 0 mm 3 mps 731 mmHg 91%
    07:00 +18°C° 0 mm 3 mps 730 mmHg 86%
    08:00 +19°C° 0 mm 3 mps 730 mmHg 82%
    09:00 +21°C° 0.2 mm 3 mps 730 mmHg 77%
    10:00 +22°C° 0.2 mm 3 mps 730 mmHg 72%
    11:00 +24°C° 0.2 mm 3 mps 730 mmHg 67%
    12:00 +24°C° 0.5 mm 3 mps 730 mmHg 67%
    13:00 +24°C° 0.5 mm 3 mps 730 mmHg 66%
    14:00 +24°C° 0.5 mm 3 mps 729 mmHg 66%
    15:00 +24°C° 0.7 mm 3 mps 729 mmHg 68%
    16:00 +24°C° 0.7 mm 3 mps 729 mmHg 70%
    17:00 +22°C° 0.7 mm 3 mps 729 mmHg 71%
    18:00 +21°C° 0.6 mm 3 mps 729 mmHg 76%
    19:00 +19°C° 0.6 mm 2 mps 729 mmHg 81%
    20:00 +18°C° 0.6 mm 2 mps 729 mmHg 86%
    21:00 +17°C° 0 mm 2 mps 728 mmHg 88%
    22:00 +16°C° 0 mm 2 mps 728 mmHg 90%
    23:00 +16°C° 0 mm 2 mps 728 mmHg 92%

    27 July, Saturday

    Time Temperature Precipitation Wind Pressure Humidity
    00:00 +15°C° 0 mm 2 mps 728 mmHg 93%
    01:00 +15°C° 0 mm 2 mps 728 mmHg 93%
    02:00 +15°C° 0 mm 2 mps 728 mmHg 94%
    03:00 +14°C° 0 mm 2 mps 728 mmHg 94%
    04:00 +14°C° 0 mm 2 mps 728 mmHg 95%
    05:00 +14°C° 0 mm 2 mps 727 mmHg 95%
    06:00 +15°C° 0 mm 2 mps 727 mmHg 93%
    07:00 +17°C° 0 mm 3 mps 728 mmHg 91%
    08:00 +18°C° 0 mm 3 mps 728 mmHg 89%
    09:00 +19°C° 0.2 mm 3 mps 728 mmHg 87%
    10:00 +19°C° 0.2 mm 3 mps 728 mmHg 84%
    11:00 +20°C° 0.2 mm 3 mps 728 mmHg 82%
    12:00 +21°C° 0.5 mm 3 mps 727 mmHg 80%
    13:00 +21°C° 0.5 mm 3 mps 727 mmHg 79%
    14:00 +22°C° 0.5 mm 3 mps 727 mmHg 77%
    15:00 +22°C° 0.5 mm 3 mps 727 mmHg 77%
    16:00 +21°C° 0.5 mm 3 mps 726 mmHg 78%
    17:00 +21°C° 0.5 mm 3 mps 726 mmHg 78%
    18:00 +20°C° 0.2 mm 2 mps 726 mmHg 83%
    19:00 +19°C° 0.2 mm 2 mps 726 mmHg 88%
    20:00 +18°C° 0.2 mm 2 mps 726 mmHg 92%
    21:00 +17°C° 0 mm 2 mps 726 mmHg 93%
    22:00 +18°C° 0 mm 1 mps 726 mmHg 93%
    23:00 +18°C° 0 mm 1 mps 726 mmHg 94%

    28 July, Sunday

    Time Temperature Precipitation Wind Pressure Humidity
    00:00 +18°C° 0 mm 1 mps 726 mmHg 94%
    01:00 +16°C° 0 mm 1 mps 726 mmHg 94%
    02:00 +16°C° 0 mm 1 mps 726 mmHg 95%
    03:00 +16°C° 0 mm 2 mps 726 mmHg 96%
    04:00 +16°C° 0 mm 2 mps 726 mmHg 96%
    05:00 +16°C° 0 mm 2 mps 726 mmHg 97%
    06:00 +17°C° 0 mm 2 mps 726 mmHg 94%
    07:00 +17°C° 0 mm 2 mps 726 mmHg 92%
    08:00 +18°C° 0 mm 2 mps 726 mmHg 89%
    09:00 +20°C° 0 mm 3 mps 726 mmHg 82%
    10:00 +22°C° 0 mm 3 mps 727 mmHg 75%
    11:00 +23°C° 0 mm 4 mps 727 mmHg 68%
    12:00 +25°C° 0.2 mm 4 mps 727 mmHg 67%
    13:00 +25°C° 0.2 mm 4 mps 726 mmHg 66%
    14:00 +25°C° 0.2 mm 4 mps 726 mmHg 66%
    15:00 +25°C° 0.3 mm 4 mps 726 mmHg 68%
    16:00 +25°C° 0.3 mm 4 mps 726 mmHg 70%
    17:00 +25°C° 0.3 mm 4 mps 726 mmHg 72%
    18:00 +24°C° 0.3 mm 3 mps 726 mmHg 77%
    19:00 +21°C° 0.3 mm 3 mps 726 mmHg 82%
    20:00 +20°C° 0.3 mm 2 mps 726 mmHg 87%
    21:00 +19°C° 0.2 mm 2 mps 726 mmHg 89%
    22:00 +19°C° 0.2 mm 2 mps 726 mmHg 91%
    23:00 +18°C° 0.2 mm 2 mps 727 mmHg 93%
    Show more